This is the latest recevied weather packets stored in our database for station/object WB4ZUT. If no packets are shown the sender has not sent any weather packets the latest 10 day(s).
| Time | Temp. | Humidity | Pressure | Rain* | Wind** | Luminosity | Snow |
|---|---|---|---|---|---|---|---|
| 1777575476 | 17.78° C | 46% | 1017.2 hPa | 0 mm | - | 705 W/m² | - |
| 1777575171 | 17.78° C | 43% | 1017.4 hPa | 0 mm | - | 711 W/m² | - |
| 1777574868 | 18.33° C | 42% | 1017.7 hPa | 0 mm | - | 713 W/m² | - |
| 1777574565 | 17.78° C | 44% | 1017.6 hPa | 0 mm | - | 732 W/m² | - |
| 1777574261 | 17.78° C | 46% | 1017.6 hPa | 0 mm | - | 720 W/m² | - |
| 1777573957 | 17.22° C | 45% | 1017.4 hPa | 0 mm | - | 734 W/m² | - |
| 1777573652 | 17.22° C | 45% | 1017.4 hPa | 0 mm | - | 735 W/m² | - |
| 1777573348 | 17.78° C | 49% | 1017.6 hPa | 0 mm | - | 734 W/m² | - |
| 1777573044 | 17.78° C | 46% | 1017.5 hPa | 0 mm | - | 739 W/m² | - |
| 1777572741 | 17.78° C | 46% | 1017.5 hPa | 0 mm | - | 738 W/m² | - |
| 1777572435 | 17.22° C | 45% | 1017.3 hPa | 0 mm | - | 726 W/m² | - |
| 1777572132 | 17.78° C | 47% | 1017.6 hPa | 0 mm | - | 737 W/m² | - |
| 1777571827 | 17.22° C | 47% | 1017.7 hPa | 0 mm | - | 725 W/m² | - |
| 1777571523 | 17.22° C | 44% | 1018 hPa | 0 mm | - | 722 W/m² | - |
| 1777571220 | 16.67° C | 47% | 1017.7 hPa | 0 mm | - | 710 W/m² | - |
| 1777570916 | 16.11° C | 45% | 1018 hPa | 0 mm | - | 714 W/m² | - |
| 1777570612 | 17.78° C | 47% | 1017.7 hPa | 0 mm | - | 708 W/m² | - |
| 1777570309 | 17.22° C | 49% | 1018.2 hPa | 0 mm | - | 706 W/m² | - |
| 1777570004 | 17.22° C | 47% | 1018.2 hPa | 0 mm | - | 721 W/m² | - |
| 1777569701 | 17.78° C | 46% | 1018.1 hPa | 0 mm | - | 735 W/m² | - |
| 1777569396 | 17.22° C | 45% | 1018.4 hPa | 0 mm | - | 727 W/m² | - |
| 1777569093 | 16.67° C | 45% | 1018.4 hPa | 0 mm | - | 713 W/m² | - |
| 1777568790 | 16.67° C | 49% | 1018.3 hPa | 0 mm | - | 721 W/m² | - |
| 1777568488 | 16.67° C | 47% | 1018.2 hPa | 0 mm | - | 733 W/m² | - |
| 1777568184 | 17.22° C | 46% | 1018.4 hPa | 0 mm | - | 749 W/m² | - |
* Rain latest hour (hover to see other rain measurements)
** Current wind speed in m/s (hover to see current wind gust speed)